TimeEDT,TemperatureF,Dew PointF,Humidity,Sea Level PressureIn,VisibilityMPH,Wind Direction,Wind SpeedMPH,Gust SpeedMPH,PrecipitationIn,Events,Conditions,WindDirDegrees,DateUTC
12:51 AM,51.8,48.2,88,30.15,5.0,East,5.8,-,N/A,,Overcast,80,2012-10-09 04:51:00
1:12 AM,51.8,48.2,88,30.15,5.0,ENE,5.8,-,N/A,,Overcast,70,2012-10-09 05:12:00
1:23 AM,51.8,48.2,88,30.15,5.0,NE,5.8,-,N/A,,Overcast,50,2012-10-09 05:23:00
1:35 AM,51.8,48.2,88,30.15,4.0,NE,4.6,-,N/A,,Overcast,50,2012-10-09 05:35:00
1:51 AM,51.1,48.9,92,30.15,4.0,NE,3.5,-,N/A,,Overcast,50,2012-10-09 05:51:00
2:21 AM,51.8,48.2,88,30.15,6.0,ENE,4.6,-,N/A,,Overcast,60,2012-10-09 06:21:00
2:31 AM,51.8,48.2,88,30.15,6.0,ENE,5.8,-,N/A,,Overcast,60,2012-10-09 06:31:00
2:51 AM,51.1,48.0,89,30.14,6.0,NE,4.6,-,N/A,,Overcast,50,2012-10-09 06:51:00
3:51 AM,51.8,48.2,88,30.14,6.0,Calm,Calm,-,N/A,,Overcast,0,2012-10-09 07:51:00
4:26 AM,50.0,48.2,94,30.12,5.0,NE,6.9,-,N/A,,Mostly Cloudy,50,2012-10-09 08:26:00
4:51 AM,50.0,48.0,93,30.13,5.0,Calm,Calm,-,N/A,,Overcast,0,2012-10-09 08:51:00
5:51 AM,50.0,48.0,93,30.14,6.0,ENE,4.6,-,N/A,,Overcast,60,2012-10-09 09:51:00
6:14 AM,50.0,48.2,94,30.14,6.0,East,3.5,-,N/A,,Overcast,80,2012-10-09 10:14:00
6:51 AM,50.0,48.0,93,30.15,6.0,NE,4.6,-,N/A,,Overcast,50,2012-10-09 10:51:00
7:17 AM,50.0,48.2,94,30.15,6.0,NE,4.6,-,N/A,,Overcast,50,2012-10-09 11:17:00
7:51 AM,51.8,48.2,88,30.16,4.0,Calm,Calm,-,N/A,,Overcast,0,2012-10-09 11:51:00
8:06 AM,50.0,48.2,94,30.16,5.0,ENE,3.5,-,N/A,,Overcast,70,2012-10-09 12:06:00
8:23 AM,51.8,48.2,88,30.17,5.0,Calm,Calm,-,N/A,,Overcast,0,2012-10-09 12:23:00
8:51 AM,51.1,48.0,89,30.18,5.0,East,5.8,-,N/A,,Overcast,80,2012-10-09 12:51:00
9:51 AM,53.6,48.2,82,30.18,6.0,ENE,6.9,-,N/A,,Haze,70,2012-10-09 13:51:00
10:51 AM,55.9,48.9,77,30.19,7.0,ENE,5.8,-,N/A,,Overcast,60,2012-10-09 14:51:00
11:51 AM,60.1,48.9,67,30.16,8.0,ENE,5.8,-,N/A,,Mostly Cloudy,60,2012-10-09 15:51:00
12:51 PM,64.0,46.9,54,30.14,8.0,Calm,Calm,-,N/A,,Partly Cloudy,0,2012-10-09 16:51:00
1:51 PM,64.0,48.0,56,30.12,8.0,NNW,5.8,-,N/A,,Overcast,330,2012-10-09 17:51:00
2:51 PM,64.9,48.9,56,30.10,8.0,Variable,3.5,-,N/A,,Mostly Cloudy,0,2012-10-09 18:51:00
3:51 PM,66.9,48.9,52,30.08,8.0,NNW,4.6,-,N/A,,Clear,330,2012-10-09 19:51:00
4:51 PM,68.0,48.9,50,30.08,8.0,Calm,Calm,-,N/A,,Clear,0,2012-10-09 20:51:00
5:51 PM,66.2,48.2,52,30.08,8.0,Calm,Calm,-,N/A,,Partly Cloudy,0,2012-10-09 21:51:00
6:51 PM,61.0,51.1,70,30.08,8.0,ENE,4.6,-,N/A,,Clear,70,2012-10-09 22:51:00
7:51 PM,55.9,51.1,84,30.08,9.0,East,5.8,-,N/A,,Clear,90,2012-10-09 23:51:00
8:51 PM,54.0,50.0,86,30.10,9.0,East,6.9,-,N/A,,Clear,90,2012-10-10 00:51:00
9:51 PM,52.0,48.9,89,30.12,8.0,East,5.8,-,N/A,,Clear,100,2012-10-10 01:51:00
10:51 PM,50.0,46.9,89,30.13,7.0,East,4.6,-,N/A,,Clear,100,2012-10-10 02:51:00
11:51 PM,48.0,46.0,93,30.12,6.0,East,3.5,-,N/A,,Clear,100,2012-10-10 03:51:00